Regional Weather Roundup
Issued by NWS

Current Version | Previous Version | Text Only | Print | Product List | Glossary On
Versions: 1 2 3 4 5 6 7 8 9 10 11 12 13 14 15 16 17 18 19 20 21 22 23 24 25 26 27 28 29 30 31 32 33 34 35 36 37 38 39 40 41 42 43 44 45 46 47 48 49 50
000
ASUS45 KBOU 302007
RWRCO

WEATHER ROUNDUP FOR COLORADO
NATIONAL WEATHER SERVICE DENVER/BOULDER CO
200 PM MDT SUN AUG 30 2015

NOTE: "FAIR" INDICATES FEW OR NO CLOUDS BELOW 12000 FEET WITH NO
SIGNIFICANT WEATHER AND/OR OBSTRUCTIONS TO VISIBILITY.

COZ001>005-013-030-031-302100-
...NORTHWEST COLORADO...

CITY           SKY/WX    TMP DP  RH WIND       PRES   REMARKS
CRAIG          PTSUNNY   80  41  24 W12G18    30.16S
HAYDEN         NOT AVBL
MEEKER         PTSUNNY   84  42  22 CALM      30.16F
MOUNT WERNER   NOT AVBL
STEAMBOAT SPGS PTSUNNY   80  39  23 SW17      30.18F
WALDEN         MOSUNNY   79  34  19 SW13G22   30.28F
$$

COZ006>008-011-302100-
...WEST CENTRAL VALLEYS...

CITY           SKY/WX    TMP DP  RH WIND       PRES   REMARKS
GRAND JUNCTION LGT RAIN  87  45  23 VRB6      30.05F
MONTROSE       MOSUNNY   85  44  23 N5        30.14F
EAGLE          MOSUNNY   84  37  18 SW8G26    30.19F
RIFLE          MOSUNNY   85  42  22 W8G18     30.09F
DELTA          MOSUNNY   91  43  18 S6        30.08F
NUCLA          MOSUNNY   86  39  19 SW8       30.19F
$$

COZ017>023-064>068-302100-
...SOUTHWEST COLORADO...

CITY           SKY/WX    TMP DP  RH WIND       PRES   REMARKS
DURANGO        MOSUNNY   82  41  23 W10       30.24F
CORTEZ         SUNNY     86  45  23 SW8       30.17F
PAGOSA SPRINGS MOSUNNY   79  38  22 W8        30.33F
TELLURIDE      LGT RAIN  69  48  46 CALM      30.44F
WOLF CREEK PAS CLOUDY    55  37  50 SW12G24   30.68F
$$

COZ009-010-012-014-032>034-037-058>063-302100-
...CENTRAL COLORADO...

CITY           SKY/WX    TMP DP  RH WIND       PRES   REMARKS
ASPEN          MOSUNNY   81  41  24 NE12      30.28F
BUENA VISTA    MOSUNNY   81  30  15 W6        30.29F
COPPER MTN     PTSUNNY   64  30  27 W15       30.64F
BERTHOUD PASS  CLOUDY    54  41  62 MISG      30.69F
COTTONWOOD PAS MOSUNNY   77  23  13 SW5       30.46F
GUNNISON       MOSUNNY   77  37  24 SW14G23   30.32F
KREMMLING      MOSUNNY   88  27  11 W10G22    30.24F
LEADVILLE      MOSUNNY   70  29  21 NW5       30.44F
MONARCH PASS   MOSUNNY   61  30  31 SW18G25   30.74F
SALIDA         MOSUNNY   83  34  17 NE6       30.33F
SUNLIGHT       LGT RAIN  61  48  63 CALM      30.55F
WILKERSON PASS PTSUNNY   68  30  24 W3        30.61S
$$

COZ069>075-302100-
...SAN LUIS VALLEY/SANGRE DE CRISTO MOUNTAINS...

CITY           SKY/WX    TMP DP  RH WIND       PRES   REMARKS
ALAMOSA        MOSUNNY   80  36  20 VRB5      30.30F
LA VETA PASS   PTSUNNY   64  34  32 CALM      30.52F
SAGUACHE       MOSUNNY   77  43  29 SE5       30.33F
$$

COZ035-036-038>040-302100-
...NORTHERN COLORADO FRONT RANGE...

CITY           SKY/WX    TMP DP  RH WIND       PRES   REMARKS
DENVER INTL AP MOSUNNY   94  28   9 VRB6      30.06F
DMNS CITY PARK   N/A     91  30  11 NE2G18    30.05F
AURORA         NOT AVBL
FRONT RANGE AP MOSUNNY   93  30  10 SW3       30.08F
ERIE MUNI ARPT MOSUNNY   95  30  10 SE7       30.02F
BOULDER MUN AP MOSUNNY   91  36  14 SE3       30.03F
CENTENNIAL     MOSUNNY   90  32  12 E3        30.11F
BROOMFIELD     PTSUNNY   93  34  12 NE6       30.08F
FORT COLLINS   SUNNY     93  39  15 SE12      29.99F
LONGMONT       SUNNY     97  35  11 S8        30.02F
$$

COZ041-046-047-076>085-087-088-302100-
...PIKES PEAK/PALMER DIVIDE AND SOUTHERN FOOTHILLS...

CITY           SKY/WX    TMP DP  RH WIND       PRES   REMARKS
COLO. SPRINGS  MOSUNNY   87  32  14 CALM      30.15F
A. F. ACADEMY  NOT AVBL
ELLICOTT       NOT AVBL
FALCON         MOSUNNY   85  38  18 MISG      30.22F
FORT CARSON    MOSUNNY   89  42  19 SE9G17    30.11
LIMON          SUNNY     88  46  23 S12       30.10F
MONUMENT HILL  MOSUNNY   79  28  15 CALM      30.22F
TRINIDAD       MOSUNNY   92  30  11 VRB5      30.13F
$$

COZ042>045-048>051-090-091-302100-
...NORTHEAST COLORADO...

CITY           SKY/WX    TMP DP  RH WIND       PRES   REMARKS
GREELEY ARPT     N/A     97  37  12 S10       30.00F
AKRON          MOSUNNY   96  44  16 SW14      30.02F
BURLINGTON     SUNNY     88  45  22 S18G29    30.05F
WRAY           CLOUDY    98  39  13 S14G28    29.98F
STERLING       SUNNY     97  43  15 S9        29.95F
HOLYOKE        SUNNY     95  48  20 S15G23    29.97F
FORT MORGAN    SUNNY     95  35  12 SE8       30.01F
$$

COZ086-089-092>099-302100-
...SOUTHEAST COLORADO...

CITY           SKY/WX    TMP DP  RH WIND       PRES   REMARKS
PUEBLO         SUNNY     95  42  16 SE8       30.02F
LA JUNTA       SUNNY     94  50  22 VRB5      30.02F
LAMAR          NOT AVBL
SPRINGFIELD    NOT AVBL
$$



USA.gov is the U.S. government's official web portal to all federal, state and local government web resources and services.